Home > Weather > Einbeck > Past weeks

Flag for Germany Past Weather in Einbeck, Lower Saxony, Germany — Yesterday and Last 2 Weeks

Now
52 °F

Overcast.


Feels Like: 51 °F
Forecast: 48 / 69 °F
Wind: 3 mph from West

Location: Kassel / Calden

Current Time: May 25, 2016 at 11:18:59 AM

Latest Report: May 25, 2016 at 10:50 AM


Visibility: 6 mi

Pressure: 30.01 "Hg

Humidity: 82%

Dew Point: 46 °F

Location of EinbeckLocation

Past Weather in Einbeck — Graph

°F

Einbeck Temperature Yesterday

Maximum temperature yesterday: 52 °F (at 5:50 PM)
Minimum temperature yesterday: 48 °F (at 8:20 AM)
Average temperature yesterday: 50 °F

High & Low Weather Summary for the Past Weeks

 TemperatureHumidityPressure
High79 °F (May 22, 2:20 PM)100% (May 13, 7:20 AM)30.09 "Hg (May 13, 7:20 AM)
Low41 °F (May 15, 7:20 AM)31% (May 11, 2:20 PM)29.50 "Hg (May 12, 5:20 PM)
Average59 °F64%29.87 "Hg
* Reported May 10 9:20 AM — May 25 9:50 AM, Einbeck, Weather by CustomWeather, © 2016

Note: Actual official high and low records may vary slightly from our data, if they occured in-between our weather recording intervals... More about our weather records

Advertising

Einbeck Weather History for the Previous 24 Hours

Scroll right to see more
 ConditionsComfort  
Time TempWeatherWind HumidityBarometerVisibility
9:50 AM
Wed, May 25
50 °FOvercast.5 mph88%29.98 "Hg6 mi
9:20 AM50 °FOvercast.5 mph88%29.98 "Hg6 mi
8:50 AM50 °FOvercast.5 mph88%29.98 "Hg6 mi
8:20 AM50 °FOvercast.2 mph82%29.98 "Hg6 mi
7:50 AM50 °FOvercast.2 mph88%29.98 "Hg6 mi
7:20 AM48 °FOvercast.3 mph94%29.98 "Hg6 mi
6:50 AM48 °FOvercast.3 mph94%29.98 "Hg6 mi
6:20 AM48 °FOvercast.2 mph94%29.98 "Hg6 mi
9:20 PM
Tue, May 24
50 °FPartly sunny.7 mph100%29.98 "HgN/A
8:50 PM50 °FPartly sunny.7 mph100%29.98 "HgN/A
8:20 PM50 °FPartly sunny.8 mph100%29.98 "HgN/A
7:50 PM52 °FPartly sunny.9 mph94%29.95 "HgN/A
7:20 PM52 °FPartly sunny.8 mph94%29.95 "HgN/A
6:50 PM52 °FBroken clouds.9 mph94%29.95 "Hg6 mi
6:20 PM52 °FPartly sunny.8 mph94%29.95 "Hg6 mi
5:50 PM52 °FCloudy.12 mph94%29.95 "Hg6 mi
5:20 PM50 °FCloudy.13 mph100%29.95 "Hg6 mi
4:50 PM50 °FMostly cloudy.13 mph100%29.95 "Hg6 mi
4:20 PM50 °FMostly cloudy.15 mph100%29.95 "Hg6 mi
3:50 PM50 °FMostly cloudy.13 mph100%29.95 "Hg6 mi
3:20 PM50 °FMostly cloudy.14 mph100%29.95 "Hg6 mi
2:50 PM50 °FMostly cloudy.12 mph100%29.95 "Hg6 mi
2:20 PM50 °FLight rain. Mostly cloudy.13 mph100%29.95 "Hg4 mi
1:50 PM50 °FDrizzle. Cloudy.13 mph100%29.95 "Hg4 mi
1:20 PM48 °FLight rain. Fog.14 mph100%29.95 "Hg3 mi
12:50 PM48 °FLight rain. Fog.13 mph100%29.95 "Hg2 mi
12:20 PM48 °FLight rain. Fog.14 mph100%29.95 "Hg1 mi
11:50 AM48 °FLight rain. Fog.13 mph100%29.95 "Hg2 mi
11:20 AM48 °FLight rain. Mostly cloudy.15 mph100%29.95 "Hg4 mi
Weather by CustomWeather, © 2016

See weather overviewHow to use our weather pages